Regional Weather Roundup
Issued by NWS

Home | Current Version | Previous Version | Text Only | Print | Product List | Glossary On
Versions: 1 2 3 4 5 6 7 8 9 10 11 12 13 14 15 16 17 18 19 20 21 22 23 24 25 26 27 28 29 30 31 32 33 34 35 36 37 38 39 40 41 42 43 44 45 46 47 48 49 50
000
ASUS44 KFWD 020615
RWRTX
NORTH TEXAS HOURLY WEATHER ROUNDUP
NATIONAL WEATHER SERVICE FORT WORTH TX
100 AM CDT WED SEP 02 2015

NOTE: "FAIR" INDICATES FEW OR NO CLOUDS BELOW 12,000 FEET WITH NO
SIGNIFICANT WEATHER AND/OR OBSTRUCTIONS TO VISIBILITY.

TXZ118-119-020700-
DALLAS/FORT WORTH METROPLEX

CITY           SKY/WX    TMP DP  RH WIND       PRES   REMARKS
DFW AIRPORT    FAIR      80  67  64 S10       30.03S
6HR MIN TEMP:  80; 6HR MAX TEMP:  91;

DALLAS LOVE    FAIR      81  68  64 S10       30.04R
6HR MIN TEMP:  81; 6HR MAX TEMP:  92;

FTW MEACHAM    FAIR      81  67  62 S12       30.03S
6HR MIN TEMP:  81; 6HR MAX TEMP:  93;

DAL-EXECUTIVE  FAIR      79  67  66 S7        30.04S
6HR MIN TEMP:  79; 6HR MAX TEMP:  91;

FTW-ALLIANCE   FAIR      80  67  64 S9        30.03S
6HR MIN TEMP:  80; 6HR MAX TEMP:  91;

FTW-NAS-JRB    FAIR      81  65  58 S9        30.04S
6HR MIN TEMP:  81; 6HR MAX TEMP:  93;

FTW-SPINKS     FAIR      77  66  70 S6        30.07R
6HR MIN TEMP:  77; 6HR MAX TEMP:  91;

ARLINGTON      FAIR      80  66  62 SE8       30.05R
6HR MIN TEMP:  80; 6HR MAX TEMP:  93;

GRAND PRAIRIE  FAIR      80  69  68 S8        30.06R
6HR MIN TEMP:  80; 6HR MAX TEMP:  91;

ADDISON        FAIR      80  70  70 S8G17     30.06S
6HR MIN TEMP:  80; 6HR MAX TEMP:  91;

MESQUITE       FAIR      75  68  78 SE5       30.05S
6HR MIN TEMP:  75; 6HR MAX TEMP:  91;

LANCASTER      FAIR      77  65  67 SE5       30.06R
6HR MIN TEMP:  77; 6HR MAX TEMP:  91;

$$

TXZ091>094-102>105-117-120-121-131>134-020700-
NORTH CENTRAL TEXAS

CITY           SKY/WX    TMP DP  RH WIND       PRES   REMARKS
SHRMAN/DENISON FAIR      78  70  75 SE9       30.05F
6HR MIN TEMP:  78; 6HR MAX TEMP:  91;

GAINESVILLE    FAIR      76  66  71 SE6       30.05F
6HR MIN TEMP:  76; 6HR MAX TEMP:  90;

BOWIE          FAIR      75  65  71 SE3       30.04S
6HR MIN TEMP:  74; 6HR MAX TEMP:  89;

BRIDGEPORT     FAIR      78  67  69 SE6       30.05S
6HR MIN TEMP:  78; 6HR MAX TEMP:  91;

DECATUR        FAIR      80  64  59 SE8       30.04F
6HR MIN TEMP:  79; 6HR MAX TEMP:  91;

DENTON         FAIR      80  67  64 SE12      30.03S
6HR MIN TEMP:  80; 6HR MAX TEMP:  91;

MCKINNEY       FAIR      77  68  73 SE6       30.05R
6HR MIN TEMP:  77; 6HR MAX TEMP:  91;

GREENVILLE     FAIR      75  68  78 SE6       30.06S
ROCKWALL       FAIR      76  69  78 S10       30.04S
6HR MIN TEMP:  76; 6HR MAX TEMP:  90;

TERRELL        FAIR      75  69  81 SE5       30.05S
6HR MIN TEMP:  75; 6HR MAX TEMP:  89;

WAXAHACHIE     FAIR      76  68  75 SE7       30.06S
6HR MIN TEMP:  76; 6HR MAX TEMP:  91;

CLEBURNE         N/A     77  68  73 S8G14     30.07R
GRANBURY       FAIR      79  66  64 SE10      30.05S
6HR MIN TEMP:  79; 6HR MAX TEMP:  93;

$$

TXZ083>090-098>101-113>116-127>130-139>142-154-155-020700-
WESTERN NORTH TEXAS

CITY           SKY/WX    TMP DP  RH WIND       PRES   REMARKS
WICHITA FALLS  FAIR      76  64  66 SE9       30.00F
6HR MIN TEMP:  76; 6HR MAX TEMP:  92;

WF-KICKAPOO    FAIR      79  64  60 CALM      30.02S
6HR MIN TEMP:  79; 6HR MAX TEMP:  94;

VERNON         FAIR      80  56  44 S9        30.02R
6HR MIN TEMP:  80; 6HR MAX TEMP:  97;

ABILENE        FAIR      77  63  61 SE10      30.05S
6HR MIN TEMP:  77; 6HR MAX TEMP:  91;

BRECKENRIDGE   FAIR      80  65  58 S12G21    30.03S
6HR MIN TEMP:  80; 6HR MAX TEMP:  92;

GRAHAM         FAIR      78  66  65 SE6       30.01S
6HR MIN TEMP:  78; 6HR MAX TEMP:  91;

MINERAL WELLS  FAIR      76  66  71 SE10      30.02S
6HR MIN TEMP:  76; 6HR MAX TEMP:  89;

STEPHENVILLE   FAIR      75  65  71 SE6       30.08S
6HR MIN TEMP:  75; 6HR MAX TEMP:  89;

COMANCHE       FAIR      75  66  73 SE9       30.06S
6HR MIN TEMP:  75; 6HR MAX TEMP:  91;

BROWNWOOD      FAIR      77  64  65 SE7       30.06R
COLEMAN        FAIR      78  65  64 S9        30.06S
6HR MIN TEMP:  78; 6HR MAX TEMP:  92;

BRADY          CLEAR     77  64  65 SE8       30.06S
$$

TXZ143>147-156>162-174-175-020700-
CENTRAL TEXAS

CITY           SKY/WX    TMP DP  RH WIND       PRES   REMARKS
WACO           FAIR      77  68  73 S14       30.05S
6HR MIN TEMP:  77; 6HR MAX TEMP:  90;

WACO-MCGREGOR  FAIR      75  68  78 SE9       30.06R
6HR MIN TEMP:  75; 6HR MAX TEMP:  90;

HILLSBORO      FAIR      71  65  81 SE7       30.06S
6HR MIN TEMP:  71; 6HR MAX TEMP:  79; 6HR PCP:  0.06;

CORSICANA      FAIR      75  68  78 S8        30.07S
6HR MIN TEMP:  75; 6HR MAX TEMP:  88;

MEXIA          FAIR      72  67  84 S8        30.06S
6HR MIN TEMP:  72; 6HR MAX TEMP:  87;

HEARNE         FAIR      72  68  88 CALM      30.06S
6HR MIN TEMP:  72; 6HR MAX TEMP:  85;

CAMERON        FAIR      73  70  88 CALM      30.06S
6HR MIN TEMP:  73; 6HR MAX TEMP:  86;

TEMPLE         FAIR      73  64  73 SE9       30.06R
6HR MIN TEMP:  73; 6HR MAX TEMP:  88;

KILLEEN        FAIR      74  67  80 SE13      30.06R
6HR MIN TEMP:  74; 6HR MAX TEMP:  89;

KILLEEN-SKYLRK FAIR      75  64  69 SE12      30.05S
6HR MIN TEMP:  75; 6HR MAX TEMP:  90;

FORT HOOD      FAIR      74  68  80 SE10      30.05S
6HR MIN TEMP:  74; 6HR MAX TEMP:  89;

GATESVILLE     FAIR      75  66  73 SE7       30.08S
HAMILTON       FAIR      75  66  72 S9        30.07S
6HR MIN TEMP:  75; 6HR MAX TEMP:  91;

$$

TXZ095>097-106>112-122>126-135>138-148>153-164>167-020700-
EAST TEXAS

CITY           SKY/WX    TMP DP  RH WIND       PRES   REMARKS
PARIS          FAIR      73  63  68 SE7       30.07S
6HR MIN TEMP:  73; 6HR MAX TEMP:  90;

SULPHUR SPRNGS FAIR      76  69  81 S5        30.08S
6HR MIN TEMP:  75; 6HR MAX TEMP:  89;

MOUNT PLEASANT FAIR      72  69  91 CALM      30.08S
6HR MIN TEMP:  72; 6HR MAX TEMP:  83;

MINEOLA        FAIR      73  72  94 CALM      30.07S
TYLER          FAIR      74  69  85 S6        30.06S
6HR MIN TEMP:  74; 6HR MAX TEMP:  84;

LONGVIEW       FAIR      73  70  90 S5        30.05S
6HR MIN TEMP:  73; 6HR MAX TEMP:  83;

MARSHALL       FAIR      73  71  91 CALM      30.08S
6HR MIN TEMP:  73; 6HR MAX TEMP:  86;

ATHENS         FAIR      70  68  94 CALM      30.06R
PALESTINE      FAIR      72  69  90 SE3       30.07S
JACKSONVILLE   FAIR      74  69  84 CALM      30.09R
HENDERSON      FAIR      71  70  97 CALM      30.07F
6HR MIN TEMP:  71; 6HR MAX TEMP:  82;

CENTER         FAIR      71  69  92 CALM      30.06S
6HR MIN TEMP:  71; 6HR MAX TEMP:  80;

NACOGDOCHES    FAIR      72  70  94 CALM      30.05F
6HR MIN TEMP:  70; 6HR MAX TEMP:  82;

LUFKIN         FAIR      71  69  93 CALM      30.06S
6HR MIN TEMP:  70; 6HR MAX TEMP:  81;

$$

SUPPLEMENTAL OBSERVATIONS (CENTRAL)

CITY           SKY/WX    TMP DP  RH WIND       PRES   REMARKS
LAKE TEXOMA      N/A     79  68  69 SE3         N/A
PAT MAYSE LAKE   N/A     75  68  78 SE6         N/A
GREENVILLE       N/A     73  68  83 SE3         N/A
CEDAR HILL       N/A     79  66  65 SE7         N/A
ATHENS           N/A     73  66  78 S3          N/A
LAKE LIMESTONE   N/A     72  66  83 CALM        N/A
MCGREGOR         N/A     73  66  78 S8          N/A
TEMPLE           N/A     73  68  83 SE5         N/A


USA.gov is the U.S. government's official web portal to all federal, state and local government web resources and services.